[[{"header":{"parameterUnit":"m.s-1","parameterCategory":2,"la1":30.2991,"la2":30.254,"lo1":-89.0895,"lo2":-89.0444,"dy":0.0017,"dx":0.0017,"nx":28,"ny":28,"refTime":"2024-04-01T03:00:00:Z","depth":"0","parameterNumber":2,"parameterNumberName":"U-component_of_CURRENTS"},"data":[0,0,0,0,0,0,0,0,0,0,0,0,0,0,0,0,0,0,0,0,0,0,0,0,0,0,0,0,0,0,0,0,0,0,0,0,0,0,0,0,0,0,0,0,0,0,0,0,0,0,0,0,0,0,0,0,0,0,0.1272,0.1272,0,0.1298,0.1298,0.1298,0.1305,0.1305,0.1304,0.1304,0.1318,0.1318,0.1319,0,0,0,0,0,0,0,0,0,0,0,0,0,0.1231,0.1231,0.1272,0.1272,0.1272,0.1298,0.1298,0.1298,0.1305,0.1305,0.1304,0.1304,0.1318,0.1318,0.1319,0,0,0,0,0,0,0,0,0,0,0,0,0,0.1251,0.1232,0.1272,0.1279,0.128,0.1298,0.1298,0.1298,0.1305,0.1305,0.1304,0.1304,0.1317,0.1318,0.1319,0.1325,0,0,0.1321,0.1321,0,0,0,0,0,0,0,0,0.125,0.1252,0.1278,0.1279,0.128,0.1299,0.1288,0.1307,0.1305,0.1295,0.1304,0.1304,0.1311,0.1312,0.1316,0.1326,0.1326,0.1321,0.1321,0.1321,0.1321,0,0,0,0,0,0,0,0.1248,0.1251,0.1281,0.1278,0.128,0.1283,0.1285,0.1292,0.1302,0.1295,0.1296,0.1301,0.1311,0.1315,0.1316,0.1326,0.1321,0.1321,0.1322,0.1322,0.1363,0.1364,0,0,0,0,0,0,0.1247,0.125,0.128,0.1282,0.1265,0.1284,0.1287,0.1292,0.1302,0.1304,0.1301,0.1301,0.1314,0.1316,0.1317,0.1342,0.1321,0.1322,0.1322,0.1362,0.1363,0.1364,0,0,0,0,0,0,0.1246,0.125,0.1279,0.1267,0.1271,0.1285,0.1291,0.1293,0.13,0.1307,0.1308,0.1307,0.1314,0.1316,0.1331,0.1342,0.1322,0.1323,0.1362,0.1363,0.1364,0.1381,0,0,0,0,0,0,0.1245,0.1249,0.1253,0.1267,0.1272,0.1296,0.1291,0.1293,0.1303,0.1304,0.1312,0.1313,0.1314,0.133,0.1331,0.1342,0.1323,0.1361,0.1362,0.1363,0.138,0.1383,0.1385,0,0,0,0,0,0.1243,0.1251,0.1253,0.1257,0.1277,0.1297,0.13,0.1308,0.1304,0.1313,0.1318,0.1313,0.1339,0.1331,0.1333,0.1344,0.136,0.1362,0.1363,0.1378,0.1382,0.1385,0,0,0,0,0,0,0.1236,0.1253,0.1256,0.1268,0.1284,0.1298,0.1307,0.131,0.1321,0.1321,0.1322,0.1324,0.1341,0.1341,0.1332,0.1361,0.1349,0.1351,0.136,0.1364,0.1366,0.1373,0.1324,0,0,0,0,0,0.1236,0.1246,0.1263,0.1274,0.1282,0.1294,0.1302,0.1309,0.1321,0.1325,0.133,0.1338,0.1349,0.1355,0.1364,0.1379,0.1414,0.1388,0.1391,0.1393,0.14,0.1449,0.1457,0.1369,0.1369,0.1369,0,0,0.1235,0.1247,0.1252,0.1273,0.1285,0.1301,0.1299,0.1316,0.1328,0.1325,0.1342,0.1348,0.1355,0.1373,0.1381,0.1375,0.1445,0.1395,0.1397,0.1403,0.1452,0.146,0.1468,0.137,0.137,0.137,0,0,0.1243,0.125,0.1263,0.1278,0.13,0.1309,0.1314,0.1332,0.1339,0.1357,0.1358,0.1373,0.1386,0.1397,0.1402,0.1427,0.1457,0.1428,0.1448,0.1495,0.1503,0.151,0.1604,0.162,0.143,0.143,0.143,0,0.124,0.126,0.1271,0.1289,0.1303,0.1313,0.1331,0.1341,0.1361,0.1371,0.1366,0.1397,0.1399,0.1426,0.1434,0.1433,0.1482,0.1432,0.15,0.1507,0.1514,0.1609,0.1625,0.1431,0.1431,0.143,0.143,0,0.1261,0.1276,0.1286,0.1312,0.1327,0.1345,0.1362,0.1377,0.1383,0.1395,0.1422,0.143,0.1453,0.1452,0.1449,0.1497,0.1526,0.1498,0.1491,0.1524,0.1622,0.1639,0.1432,0.1432,0.1431,0.1431,0,0,0.1256,0.1293,0.1296,0.1311,0.1341,0.1356,0.1379,0.1405,0.1429,0.144,0.1479,0.1483,0.1493,0.1501,0.1502,0.1534,0.1632,0.1539,0.1541,0.1635,0.1785,0.1837,0.1861,0.1616,0.1618,0.162,0.1848,0,0.127,0.1302,0.132,0.135,0.1368,0.1386,0.1411,0.1435,0.1457,0.1499,0.1509,0.1548,0.151,0.1538,0.156,0.162,0.1672,0.1576,0.1737,0.1743,0.1786,0.188,0.1857,0.206,0.1865,0.1867,0.1869,0,0.1285,0.1306,0.1335,0.1372,0.1383,0.1402,0.1447,0.1473,0.1525,0.155,0.1583,0.1606,0.1668,0.1626,0.1745,0.169,0.1742,0.1778,0.1787,0.1838,0.1826,0.1987,0.2098,0.209,0.1896,0.1894,0.1892,0,0.1276,0.1316,0.1337,0.135,0.1394,0.1412,0.1439,0.1485,0.152,0.1598,0.1649,0.1703,0.1772,0.1818,0.1895,0.1836,0.2042,0.197,0.207,0.2076,0.209,0.2093,0.2209,0.2055,0.2055,0.2054,0.2053,0,0.1282,0.1299,0.1334,0.1346,0.1377,0.1413,0.1457,0.1494,0.1569,0.1632,0.1679,0.176,0.1821,0.1934,0.1964,0.2107,0.2109,0.2114,0.2142,0.21,0.2101,0.2118,0.2085,0.2063,0.2061,0.2059,0.2058,0,0.1267,0.129,0.1315,0.1358,0.1372,0.1394,0.1462,0.15,0.1582,0.1677,0.1718,0.185,0.2016,0.2095,0.2229,0.2233,0.2304,0.2375,0.2352,0.2371,0.2417,0.2385,0.2387,0.2321,0.2529,0.2531,0.2534,0,0.126,0.1272,0.131,0.1323,0.1342,0.1382,0.1413,0.1491,0.155,0.1731,0.179,0.1989,0.2123,0.2372,0.2446,0.2577,0.2446,0.2609,0.2463,0.2462,0.2447,0.226,0.2188,0.2514,0.2516,0.2517,0.2518,0,0.1246,0.1258,0.1277,0.1303,0.133,0.1365,0.1428,0.1475,0.1596,0.1708,0.1895,0.2027,0.2297,0.2454,0.2636,0.2675,0.2513,0.2645,0.2637,0.2459,0.2268,0.2205,0.2351,0.2532,0.2531,0.253,0.2529,0.2529,0.1228,0.1236,0.1259,0.1284,0.1311,0.1348,0.1378,0.1475,0.1584,0.1767,0.1919,0.213,0.2403,0.2663,0.2689,0.2771,0.2637,0.2722,0.2699,0.252,0.2397,0.2605,0.2803,0.2803,0.2803,0.2803,0.2803,0,0.1208,0.1222,0.1241,0.127,0.1289,0.1314,0.1389,0.1434,0.156,0.1781,0.1961,0.2285,0.2493,0.2667,0.287,0.2846,0.2624,0.2796,0.2524,0.2458,0.2682,0.2621,0.2794,0.2794,0.2794,0.2794,0.2794,0.2794,0.1199,0.1208,0.1223,0.1243,0.1263,0.1289,0.1324,0.1407,0.1559,0.1811,0.2031,0.2211,0.2556,0.2862,0.2949,0.2883,0.2666,0.2582,0.2519,0.2707,0.2695,0.2684,0.2621,0.2791,0.2791,0.218,0.2176,0.2173]},{"header":{"parameterUnit":"m.s-1","parameterCategory":2,"la1":30.2991,"la2":30.254,"lo1":-89.0895,"lo2":-89.0444,"dy":0.0017,"dx":0.0017,"nx":28,"ny":28,"refTime":"2024-04-01T03:00:00:Z","depth":"0","parameterNumber":3,"parameterNumberName":"V-component_of_CURRENTS"},"data":[0,0,0,0,0,0,0,0,0,0,0,0,0,0,0,0,0,0,0,0,0,0,0,0,0,0,0,0,0,0,0,0,0,0,0,0,0,0,0,0,0,0,0,0,0,0,0,0,0,0,0,0,0,0,0,0,0,0,0.006,0.006,0,0.0017,0.0016,0.0016,-0.0013,-0.0013,-0.0013,-0.0013,-0.0084,-0.0086,-0.0087,0,0,0,0,0,0,0,0,0,0,0,0,0,0.0102,0.0101,0.006,0.006,0.0059,0.0017,0.0016,0.0016,-0.0013,-0.0013,-0.0013,-0.0013,-0.0083,-0.0085,-0.0087,0,0,0,0,0,0,0,0,0,0,0,0,0,0.0073,0.0101,0.0061,0.004,0.0038,0.0017,0.0016,0.0015,-0.0013,-0.0013,-0.0013,-0.0014,-0.0083,-0.0085,-0.0088,-0.0099,0,0,-0.0096,-0.0097,0,0,0,0,0,0,0,0,0.0075,0.0072,0.0044,0.0042,0.0039,0.0007,0.0005,-0.0024,-0.0013,0.0006,-0.0013,-0.0014,-0.0056,-0.006,-0.0068,-0.0102,-0.0105,-0.0096,-0.0097,-0.0099,-0.0099,0,0,0,0,0,0,0,0.0077,0.0073,0.0043,0.0043,0.004,0.0027,0.0023,-0.0001,-0.0023,0.0005,0.0002,-0.0002,-0.0057,-0.0065,-0.007,-0.0106,-0.0096,-0.0098,-0.01,-0.0101,-0.0165,-0.0165,0,0,0,0,0,0,0.0084,0.0075,0.0044,0.0042,0.0057,0.0027,0.0022,0.0018,-0.0023,-0.0029,-0.0002,-0.0003,-0.0061,-0.0067,-0.0073,-0.0097,-0.0099,-0.0101,-0.0102,-0.0165,-0.0165,-0.0165,0,0,0,0,0,0,0.0085,0.0082,0.0046,0.0058,0.0052,0.0027,0.0022,0.0017,0.0008,-0.0027,-0.0034,-0.0006,-0.0061,-0.0069,-0.0096,-0.0099,-0.0102,-0.0105,-0.0165,-0.0165,-0.0165,-0.0139,0,0,0,0,0,0,0.0086,0.0082,0.0081,0.0058,0.0052,0.0036,0.0022,0.0016,0.0006,0.0003,-0.0033,-0.004,-0.0062,-0.0092,-0.0098,-0.0103,-0.0107,-0.0165,-0.0165,-0.0165,-0.014,-0.0138,-0.0137,0,0,0,0,0,0.0088,0.0089,0.0082,0.0078,0.0052,0.0037,0.0032,0.0013,0.0006,0.0004,-0.0023,-0.0038,-0.0098,-0.0094,-0.0102,-0.0107,-0.0165,-0.0165,-0.0165,-0.014,-0.0139,-0.0137,0,0,0,0,0,0,0.0107,0.0085,0.0077,0.0071,0.0057,0.0032,0.0028,0.0016,-0.0007,-0.001,-0.0042,-0.0051,-0.0076,-0.0094,-0.0088,-0.0126,-0.0134,-0.0135,-0.0112,-0.0111,-0.0109,-0.0099,-0.0109,0,0,0,0,0,0.0111,0.0105,0.0084,0.008,0.0074,0.0052,0.0044,0.0031,0.0009,-0.0001,-0.0026,-0.0055,-0.0083,-0.0098,-0.0124,-0.0144,-0.0148,-0.0152,-0.0151,-0.015,-0.0147,-0.0154,-0.0153,-0.0167,-0.0167,-0.0167,0,0,0.0117,0.0105,0.0101,0.0084,0.0071,0.0064,0.0046,0.0036,0.0027,-0.0005,-0.0025,-0.0052,-0.0088,-0.0112,-0.0125,-0.0128,-0.0146,-0.015,-0.0149,-0.0147,-0.0154,-0.0153,-0.0152,-0.0167,-0.0167,-0.0167,0,0,0.0128,0.0116,0.0116,0.0105,0.0089,0.0074,0.0073,0.005,0.0037,0.0016,-0.0012,-0.004,-0.0078,-0.0106,-0.0125,-0.0132,-0.0139,-0.0139,-0.0126,-0.0133,-0.0131,-0.013,-0.0122,-0.012,-0.0138,-0.0138,-0.0138,0,0.0137,0.0133,0.0114,0.0113,0.0105,0.0081,0.0081,0.0063,0.0034,0.0024,0.0013,-0.0043,-0.0077,-0.0108,-0.0115,-0.013,-0.0126,-0.0128,-0.013,-0.0129,-0.0128,-0.012,-0.0119,-0.0137,-0.0137,-0.0137,-0.0137,0,0.0148,0.0145,0.0145,0.0133,0.0123,0.0119,0.0094,0.0083,0.0065,0.0046,0.0017,-0.0026,-0.0057,-0.0076,-0.0102,-0.0117,-0.0112,-0.0126,-0.013,-0.0125,-0.0117,-0.0116,-0.0135,-0.0136,-0.0136,-0.0136,0,0,0.0169,0.0155,0.0155,0.0156,0.0134,0.0129,0.0115,0.0096,0.0099,0.0059,0.006,-0.0008,-0.0024,-0.0047,-0.0079,-0.0095,-0.0093,-0.0106,-0.0107,-0.0091,-0.009,-0.0089,-0.0088,-0.0102,-0.0102,-0.0102,-0.0083,0,0.0184,0.019,0.0174,0.0177,0.0179,0.0153,0.0147,0.0126,0.011,0.0107,0.0056,0.0046,-0.0014,-0.0016,-0.0048,-0.0075,-0.009,-0.0096,-0.0104,-0.0104,-0.0098,-0.0087,-0.0094,-0.0077,-0.0082,-0.0081,-0.0081,0,0.0199,0.0203,0.0211,0.0207,0.0205,0.0202,0.0197,0.0191,0.0173,0.0165,0.0137,0.0111,0.0073,0.0035,-0.0023,-0.002,-0.0056,-0.0082,-0.0082,-0.009,-0.0101,-0.0086,-0.0075,-0.0193,-0.008,-0.008,-0.008,0,0.0228,0.0227,0.0235,0.0233,0.0225,0.0224,0.0222,0.0209,0.0228,0.0217,0.0247,0.0178,0.0187,0.011,0.0043,0.0017,0.0001,-0.004,-0.0075,-0.0075,-0.0087,-0.0088,-0.0187,-0.0077,-0.0077,-0.0077,-0.0077,0,0.0249,0.0256,0.0252,0.0259,0.028,0.0261,0.0289,0.0281,0.0302,0.0355,0.0289,0.0332,0.0211,0.0184,0.0086,0.0021,0.0033,-0.0066,-0.0071,-0.0078,-0.0078,-0.0187,-0.0272,-0.0076,-0.0077,-0.0077,-0.0077,0,0.0276,0.0271,0.0287,0.0289,0.0294,0.0313,0.0349,0.038,0.0395,0.0472,0.0485,0.0468,0.0435,0.0314,0.0222,0.0111,-0.0044,0.0001,0.0009,0.0004,-0.0166,-0.0248,-0.0343,-0.041,-0.0047,-0.0046,-0.0046,0,0.029,0.0301,0.0319,0.0341,0.0344,0.0374,0.0406,0.0424,0.0483,0.0571,0.0628,0.0624,0.0646,0.0499,0.0293,0.0127,-0.0006,0.0012,-0.0059,-0.0171,-0.0267,-0.0317,-0.0371,-0.0059,-0.0059,-0.0059,-0.0059,0,0.0323,0.0327,0.0345,0.0395,0.0429,0.048,0.0539,0.0607,0.0666,0.075,0.0875,0.0906,0.0764,0.0608,0.0364,0.0217,-0.0094,0.0007,-0.0117,-0.0292,-0.0346,-0.0413,-0.0067,-0.0059,-0.0059,-0.0059,-0.0059,-0.0059,0.0351,0.0376,0.0407,0.0456,0.0507,0.0601,0.0681,0.0776,0.0904,0.1082,0.1077,0.1188,0.0914,0.0575,0.0338,-0.0074,-0.009,-0.0195,-0.0284,-0.0321,-0.0404,-0.005,-0.0048,-0.0047,-0.0047,-0.0047,-0.0047,0,0.0392,0.0423,0.047,0.0546,0.0631,0.0643,0.0785,0.0904,0.1099,0.1257,0.1383,0.1357,0.0976,0.0588,0.0017,-0.0291,-0.043,-0.046,-0.0553,-0.0595,-0.028,-0.03,-0.0342,-0.0342,-0.0342,-0.0342,-0.0341,-0.0341,0.0417,0.0473,0.05,0.0646,0.0713,0.0868,0.097,0.1153,0.1314,0.1568,0.1697,0.1759,0.1518,0.0381,-0.0346,-0.0556,-0.0788,-0.0837,-0.0937,-0.0747,-0.073,-0.0713,-0.0751,-0.0887,-0.0888,-0.1213,-0.1216,-0.1219]}],[{"header":{"parameterUnit":"m.s-1","parameterCategory":2,"la1":30.2991,"la2":30.254,"lo1":-89.0895,"lo2":-89.0444,"dy":0.0017,"dx":0.0017,"nx":28,"ny":28,"refTime":"2024-04-01T03:00:00:Z","depth":"2","parameterNumber":2,"parameterNumberName":"U-component_of_CURRENTS"},"data":[0,0,0,0,0,0,0,0,0,0,0,0,0,0,0,0,0,0,0,0,0,0,0,0,0,0,0,0,0,0,0,0,0,0,0,0,0,0,0,0,0,0,0,0,0,0,0,0,0,0,0,0,0,0,0,0,0,0,0.1214,0.1214,0,0.124,0.124,0.124,0.1249,0.1249,0.1249,0.1248,0.1265,0.1265,0.1266,0,0,0,0,0,0,0,0,0,0,0,0,0,0.1174,0.1174,0.1214,0.1214,0.1215,0.124,0.124,0.124,0.1249,0.1249,0.1249,0.1248,0.1265,0.1265,0.1266,0,0,0,0,0,0,0,0,0,0,0,0,0,0.1194,0.1174,0.1214,0.1223,0.1224,0.124,0.124,0.1241,0.1249,0.1249,0.1249,0.1248,0.1264,0.1265,0.1266,0.1271,0,0,0.1268,0.1268,0,0,0,0,0,0,0,0,0.1192,0.1195,0.1221,0.1222,0.1223,0.1242,0.1232,0.1251,0.1249,0.1238,0.1248,0.1248,0.1257,0.1258,0.1262,0.1272,0.1272,0.1268,0.1268,0.1269,0.1269,0,0,0,0,0,0,0,0.1191,0.1194,0.1223,0.1221,0.1223,0.1226,0.1229,0.1235,0.1246,0.1239,0.124,0.1244,0.1257,0.1261,0.1262,0.1273,0.1268,0.1269,0.1269,0.1269,0.1313,0.1314,0,0,0,0,0,0,0.119,0.1193,0.1222,0.1224,0.1209,0.1227,0.123,0.1235,0.1247,0.1249,0.1244,0.1245,0.126,0.1261,0.1263,0.1291,0.1269,0.1269,0.127,0.1313,0.1314,0.1314,0,0,0,0,0,0,0.1189,0.1192,0.1221,0.121,0.1214,0.1228,0.1234,0.1236,0.1244,0.1251,0.1253,0.1252,0.126,0.1262,0.1279,0.1291,0.127,0.127,0.1312,0.1313,0.1314,0.1334,0,0,0,0,0,0,0.1188,0.1192,0.1196,0.121,0.1214,0.1239,0.1234,0.1236,0.1247,0.1248,0.1258,0.1259,0.126,0.1278,0.1279,0.1291,0.1271,0.1311,0.1312,0.1314,0.1332,0.1335,0.1338,0,0,0,0,0,0.1186,0.1194,0.1196,0.12,0.122,0.1239,0.1242,0.1251,0.1248,0.1257,0.1264,0.1259,0.1288,0.1279,0.1281,0.1293,0.131,0.1312,0.1313,0.1331,0.1335,0.1338,0,0,0,0,0,0,0.1179,0.1196,0.1199,0.1211,0.1227,0.1241,0.1251,0.1254,0.1266,0.1267,0.1268,0.127,0.129,0.129,0.128,0.1311,0.1298,0.13,0.1311,0.1315,0.1318,0.1323,0.1271,0,0,0,0,0,0.1179,0.1189,0.1206,0.1217,0.1226,0.1238,0.1246,0.1254,0.1266,0.1271,0.1277,0.1286,0.1298,0.1305,0.1314,0.133,0.1363,0.134,0.1343,0.1346,0.1352,0.14,0.1408,0.132,0.132,0.132,0,0,0.1178,0.119,0.1195,0.1216,0.1228,0.1246,0.1243,0.1261,0.1274,0.1271,0.129,0.1297,0.1304,0.1324,0.1333,0.1326,0.1396,0.1348,0.135,0.1355,0.1402,0.1411,0.1419,0.1321,0.1321,0.1321,0,0,0.1187,0.1194,0.1208,0.1223,0.1245,0.1254,0.1261,0.1279,0.1287,0.1307,0.1308,0.1324,0.1339,0.135,0.1356,0.1381,0.141,0.1384,0.1404,0.145,0.1458,0.1465,0.1554,0.1569,0.1386,0.1386,0.1386,0,0.1184,0.1205,0.1215,0.1235,0.1248,0.1259,0.1278,0.1289,0.131,0.1321,0.1317,0.135,0.1352,0.138,0.1389,0.1388,0.1435,0.1388,0.1455,0.1462,0.1469,0.1558,0.1574,0.1387,0.1387,0.1387,0.1387,0,0.1207,0.1223,0.1233,0.126,0.1276,0.1295,0.1312,0.1328,0.1336,0.1347,0.1376,0.1385,0.1409,0.1408,0.1406,0.1453,0.1481,0.1453,0.1445,0.1479,0.1571,0.1588,0.1389,0.1388,0.1388,0.1388,0,0,0.1203,0.124,0.1244,0.1259,0.129,0.1305,0.133,0.1357,0.138,0.1394,0.1433,0.1439,0.1449,0.1457,0.1459,0.149,0.1586,0.1495,0.1497,0.1585,0.1732,0.1737,0.1756,0.1571,0.1573,0.1575,0.1791,0,0.1217,0.1251,0.1269,0.1301,0.1319,0.1338,0.1363,0.1388,0.141,0.1452,0.1462,0.1502,0.1467,0.1494,0.1516,0.1574,0.1624,0.1533,0.1685,0.1691,0.169,0.1772,0.1611,0.1787,0.1807,0.1809,0.1811,0,0.1234,0.1255,0.1285,0.1323,0.1334,0.1354,0.1398,0.1424,0.1476,0.1502,0.1535,0.1558,0.162,0.158,0.1695,0.1643,0.1692,0.1726,0.1734,0.1739,0.1724,0.1749,0.1816,0.1839,0.1837,0.1835,0.1833,0,0.1224,0.1266,0.1287,0.13,0.1345,0.1363,0.1391,0.1437,0.1471,0.1548,0.1599,0.1652,0.1719,0.1764,0.1836,0.1782,0.1976,0.191,0.1965,0.1968,0.1861,0.185,0.1992,0.1992,0.1991,0.1991,0.199,0,0.123,0.1248,0.1284,0.1297,0.1328,0.1364,0.1408,0.1445,0.1519,0.1581,0.1628,0.1705,0.1767,0.1873,0.1902,0.2014,0.2039,0.2002,0.2025,0.1868,0.1855,0.1902,0.1889,0.1999,0.1997,0.1996,0.1994,0,0.1215,0.1239,0.1264,0.1308,0.1322,0.1345,0.1413,0.145,0.1531,0.1625,0.1665,0.1792,0.1947,0.202,0.2147,0.2126,0.2211,0.2238,0.2077,0.2075,0.2161,0.2146,0.2329,0.2331,0.2332,0.2334,0.2335,0,0.1208,0.122,0.1259,0.1272,0.1291,0.1333,0.1363,0.1441,0.1499,0.1675,0.1732,0.1918,0.2038,0.2247,0.2272,0.2371,0.2339,0.2251,0.2089,0.2193,0.2196,0.2178,0.2162,0.1981,0.1979,0.1977,0.1976,0,0.1193,0.1206,0.1225,0.1252,0.1279,0.1314,0.1376,0.1423,0.1542,0.165,0.1823,0.1942,0.2152,0.2196,0.232,0.2321,0.2214,0.2224,0.2397,0.1906,0.1877,0.1876,0.1869,0.1963,0.1964,0.1965,0.1966,0.1966,0.1175,0.1182,0.1206,0.1232,0.1259,0.1297,0.1327,0.1417,0.1521,0.1678,0.182,0.1953,0.2032,0.2152,0.2138,0.2119,0.2242,0.2112,0.2111,0.2113,0.202,0.1993,0.2088,0.209,0.2091,0.2093,0.2094,0,0.1151,0.1169,0.1188,0.1217,0.1235,0.1263,0.1337,0.1369,0.1484,0.1643,0.1789,0.1733,0.1818,0.189,0.186,0.1882,0.179,0.1791,0.1648,0.1666,0.1682,0.1558,0.1508,0.1505,0.1503,0.1501,0,0,0.1141,0.115,0.1164,0.1186,0.1209,0.1235,0.127,0.1328,0.1428,0.1507,0.158,0.1762,0.1864,0.1654,0.1653,0.1584,0.1593,0.152,0.2004,0.1857,0.1868,0.19,0.1738,0,0,0,0,0]},{"header":{"parameterUnit":"m.s-1","parameterCategory":2,"la1":30.2991,"la2":30.254,"lo1":-89.0895,"lo2":-89.0444,"dy":0.0017,"dx":0.0017,"nx":28,"ny":28,"refTime":"2024-04-01T03:00:00:Z","depth":"2","parameterNumber":3,"parameterNumberName":"V-component_of_CURRENTS"},"data":[0,0,0,0,0,0,0,0,0,0,0,0,0,0,0,0,0,0,0,0,0,0,0,0,0,0,0,0,0,0,0,0,0,0,0,0,0,0,0,0,0,0,0,0,0,0,0,0,0,0,0,0,0,0,0,0,0,0,-0.0039,-0.004,0,-0.0081,-0.0082,-0.0082,-0.011,-0.011,-0.011,-0.011,-0.0178,-0.018,-0.0182,0,0,0,0,0,0,0,0,0,0,0,0,0,-0.0001,-0.0002,-0.0039,-0.004,-0.004,-0.0081,-0.0082,-0.0083,-0.011,-0.011,-0.011,-0.011,-0.0178,-0.018,-0.0182,0,0,0,0,0,0,0,0,0,0,0,0,0,-0.0028,-0.0002,-0.0039,-0.0058,-0.006,-0.0081,-0.0082,-0.0083,-0.0109,-0.011,-0.011,-0.011,-0.0177,-0.0179,-0.0182,-0.0194,0,0,-0.019,-0.0191,0,0,0,0,0,0,0,0,-0.0027,-0.003,-0.0055,-0.0057,-0.0059,-0.009,-0.0094,-0.0121,-0.0109,-0.0091,-0.011,-0.011,-0.0151,-0.0155,-0.0163,-0.0197,-0.02,-0.019,-0.0191,-0.0193,-0.0193,0,0,0,0,0,0,0,-0.0025,-0.0028,-0.0056,-0.0056,-0.0058,-0.0072,-0.0075,-0.0099,-0.012,-0.0093,-0.0095,-0.0099,-0.0152,-0.0161,-0.0165,-0.0201,-0.019,-0.0192,-0.0194,-0.0195,-0.0256,-0.0256,0,0,0,0,0,0,-0.0018,-0.0026,-0.0055,-0.0058,-0.0043,-0.0072,-0.0076,-0.008,-0.0119,-0.0125,-0.0099,-0.01,-0.0156,-0.0162,-0.0168,-0.0188,-0.0193,-0.0195,-0.0196,-0.0255,-0.0256,-0.0256,0,0,0,0,0,0,-0.0017,-0.002,-0.0053,-0.0043,-0.0048,-0.0072,-0.0077,-0.0081,-0.0089,-0.0123,-0.013,-0.0101,-0.0157,-0.0164,-0.0189,-0.0191,-0.0196,-0.0198,-0.0255,-0.0255,-0.0256,-0.0227,0,0,0,0,0,0,-0.0016,-0.0019,-0.0019,-0.0042,-0.0048,-0.0062,-0.0077,-0.0082,-0.0091,-0.0093,-0.0128,-0.0135,-0.0157,-0.0185,-0.0191,-0.0194,-0.02,-0.0255,-0.0255,-0.0256,-0.0227,-0.0226,-0.0224,0,0,0,0,0,-0.0014,-0.0012,-0.0019,-0.0022,-0.0047,-0.0061,-0.0066,-0.0084,-0.009,-0.0092,-0.0118,-0.0133,-0.0191,-0.0187,-0.0195,-0.0198,-0.0255,-0.0255,-0.0256,-0.0228,-0.0226,-0.0224,0,0,0,0,0,0,0.0005,-0.0015,-0.0023,-0.0028,-0.0041,-0.0066,-0.0069,-0.008,-0.0101,-0.0104,-0.0136,-0.0145,-0.0168,-0.0186,-0.0181,-0.0216,-0.0225,-0.0227,-0.0202,-0.02,-0.0198,-0.0188,-0.0203,0,0,0,0,0,0.001,0.0005,-0.0015,-0.0018,-0.0023,-0.0045,-0.0052,-0.0064,-0.0085,-0.0094,-0.0119,-0.0147,-0.0174,-0.0189,-0.0214,-0.0233,-0.0239,-0.024,-0.0238,-0.0236,-0.0233,-0.0243,-0.0241,-0.0256,-0.0256,-0.0256,0,0,0.0016,0.0005,0.0002,-0.0014,-0.0026,-0.0032,-0.005,-0.0058,-0.0066,-0.0099,-0.0116,-0.0143,-0.0178,-0.0201,-0.0212,-0.0216,-0.0234,-0.0237,-0.0235,-0.0233,-0.0243,-0.0241,-0.024,-0.0256,-0.0256,-0.0256,0,0,0.003,0.0018,0.002,0.001,-0.0005,-0.002,-0.002,-0.0042,-0.0054,-0.0073,-0.0101,-0.0127,-0.0164,-0.0191,-0.021,-0.0215,-0.0225,-0.0222,-0.0207,-0.0215,-0.0214,-0.0213,-0.021,-0.0209,-0.0221,-0.0221,-0.0221,0,0.004,0.0037,0.0019,0.0018,0.0012,-0.0012,-0.0011,-0.0027,-0.0055,-0.0064,-0.0074,-0.0129,-0.0161,-0.0191,-0.0196,-0.0211,-0.0211,-0.021,-0.0212,-0.0211,-0.0211,-0.0208,-0.0207,-0.0219,-0.0219,-0.022,-0.022,0,0.0053,0.0051,0.0052,0.0042,0.0033,0.0031,0.0007,-0.0002,-0.002,-0.0038,-0.0066,-0.0108,-0.0137,-0.0156,-0.0181,-0.0195,-0.0194,-0.0208,-0.0214,-0.0207,-0.0205,-0.0205,-0.0217,-0.0218,-0.0218,-0.0219,0,0,0.0076,0.0064,0.0065,0.0066,0.0046,0.0042,0.003,0.0012,0.0016,-0.0022,-0.0021,-0.0085,-0.0101,-0.0124,-0.0156,-0.0172,-0.0173,-0.0186,-0.0187,-0.0177,-0.0178,-0.0212,-0.0214,-0.0182,-0.0182,-0.0182,-0.0175,0,0.0093,0.0102,0.0086,0.0091,0.0094,0.0069,0.0064,0.0045,0.003,0.0026,-0.0024,-0.0034,-0.0091,-0.0093,-0.0124,-0.0155,-0.0172,-0.0173,-0.0192,-0.0192,-0.0218,-0.0215,-0.0216,-0.0213,-0.0175,-0.0175,-0.0175,0,0.011,0.0115,0.0125,0.0122,0.0121,0.0119,0.0115,0.011,0.0092,0.0084,0.0057,0.003,-0.0008,-0.0044,-0.0106,-0.01,-0.0139,-0.0167,-0.0168,-0.0209,-0.0225,-0.0216,-0.0214,-0.0174,-0.0174,-0.0174,-0.0174,0,0.0139,0.014,0.015,0.0148,0.0142,0.0143,0.0141,0.0129,0.0146,0.0135,0.0161,0.0093,0.0099,0.0022,-0.005,-0.007,-0.01,-0.0135,-0.0203,-0.0204,-0.0216,-0.0219,-0.0174,-0.0174,-0.0174,-0.0174,-0.0174,0,0.0161,0.017,0.0167,0.0174,0.0197,0.0179,0.0207,0.02,0.0218,0.0266,0.0202,0.0237,0.012,0.0086,-0.0012,-0.0099,-0.0072,-0.0198,-0.0208,-0.0206,-0.0208,-0.0187,-0.0189,-0.0174,-0.0174,-0.0174,-0.0174,0,0.0188,0.0184,0.0202,0.0205,0.0211,0.023,0.0265,0.0295,0.0307,0.0377,0.0388,0.0363,0.0317,0.0196,0.0098,-0.0024,-0.012,-0.0155,-0.0142,-0.0153,-0.0229,-0.0229,-0.0242,-0.0244,-0.0245,-0.0245,-0.0246,0,0.0202,0.0214,0.0233,0.0256,0.026,0.029,0.0321,0.0338,0.0392,0.0465,0.0516,0.0498,0.0496,0.0321,0.0109,-0.007,-0.0087,-0.0197,-0.0261,-0.0229,-0.0238,-0.0236,-0.0235,-0.0253,-0.0254,-0.0254,-0.0255,0,0.0234,0.0239,0.0258,0.0308,0.0342,0.0391,0.0447,0.0508,0.0561,0.0632,0.0731,0.0738,0.0568,0.0379,0.0113,-0.0025,-0.0183,-0.0217,-0.0169,-0.0246,-0.0242,-0.025,-0.0248,-0.026,-0.026,-0.0259,-0.0259,-0.0259,0.0261,0.0286,0.0317,0.0366,0.0416,0.0503,0.0578,0.0656,0.0768,0.0894,0.0883,0.0899,0.0644,0.0303,0.0065,-0.0198,-0.0198,-0.0307,-0.0304,-0.03,-0.0314,-0.0313,-0.0345,-0.0345,-0.0345,-0.0345,-0.0345,0,0.0296,0.033,0.0376,0.0449,0.0526,0.0544,0.0674,0.0757,0.0918,0.0993,0.1067,0.0841,0.0613,0.0348,-0.0048,-0.03,-0.0321,-0.0374,-0.0343,-0.0337,-0.0332,-0.0347,-0.0387,-0.0387,-0.0388,-0.0388,0,0,0.0319,0.037,0.0397,0.0532,0.0601,0.0739,0.0833,0.0951,0.1033,0.1105,0.1111,0.1043,0.07,0.0405,0.0065,-0.0144,-0.0182,-0.0196,-0.0143,-0.0063,-0.0055,-0.0284,-0.0299,0,0,0,0,0]}],[{"header":{"parameterUnit":"m.s-1","parameterCategory":2,"la1":30.2991,"la2":30.254,"lo1":-89.0895,"lo2":-89.0444,"dy":0.0017,"dx":0.0017,"nx":28,"ny":28,"refTime":"2024-04-01T03:00:00:Z","depth":"4","parameterNumber":2,"parameterNumberName":"U-component_of_CURRENTS"},"data":[0,0,0,0,0,0,0,0,0,0,0,0,0,0,0,0,0,0,0,0,0,0,0,0,0,0,0,0,0,0,0,0,0,0,0,0,0,0,0,0,0,0,0,0,0,0,0,0,0,0,0,0,0,0,0,0,0,0,0.0744,0.0745,0,0.0778,0.0778,0.0779,0.0811,0.0811,0.0812,0.0813,0.0831,0.0831,0.0831,0,0,0,0,0,0,0,0,0,0,0,0,0,0.069,0.0691,0.0744,0.0745,0.0746,0.0778,0.0779,0.0779,0.0811,0.0811,0.0812,0.0813,0.0831,0.0831,0.0831,0,0,0,0,0,0,0,0,0,0,0,0,0,0.0716,0.0691,0.0744,0.0767,0.0769,0.0778,0.0779,0.0779,0.0811,0.0811,0.0812,0.0813,0.0831,0.0831,0.0831,0.0814,0,0,0.0831,0.0831,0,0,0,0,0,0,0,0,0.0715,0.0718,0.0763,0.0765,0.0768,0.0793,0.0767,0.0791,0.081,0.0793,0.0813,0.0814,0.0818,0.0819,0.0821,0.0815,0.0816,0.0831,0.0831,0.0831,0.0831,0,0,0,0,0,0,0,0.0713,0.0717,0.0756,0.0763,0.0767,0.0769,0.0774,0.0771,0.0798,0.0795,0.0797,0.0804,0.0819,0.0821,0.0822,0.0816,0.0831,0.0831,0.0831,0.0831,0.0867,0.0868,0,0,0,0,0,0,0.0712,0.0715,0.0755,0.0757,0.0745,0.077,0.0775,0.0783,0.0799,0.0803,0.0803,0.0805,0.0821,0.0822,0.0822,0.0867,0.0831,0.0831,0.0831,0.0866,0.0867,0.0868,0,0,0,0,0,0,0.0711,0.0716,0.0754,0.0738,0.0743,0.077,0.0778,0.0783,0.0804,0.0806,0.0809,0.0822,0.0821,0.0822,0.0836,0.0865,0.0831,0.0831,0.0865,0.0866,0.0868,0.0914,0,0,0,0,0,0,0.0709,0.0715,0.0726,0.0738,0.0744,0.0767,0.0778,0.0783,0.0806,0.081,0.0822,0.0824,0.0822,0.0836,0.0836,0.0864,0.0831,0.0864,0.0865,0.0867,0.0911,0.0917,0.0922,0,0,0,0,0,0.0707,0.0716,0.0726,0.0732,0.0757,0.0768,0.0771,0.0791,0.0806,0.0814,0.0827,0.0825,0.0848,0.0837,0.0836,0.0865,0.0863,0.0865,0.0867,0.0909,0.0916,0.0921,0,0,0,0,0,0,0.0699,0.0721,0.0732,0.0748,0.0762,0.0774,0.0786,0.08,0.0816,0.0825,0.0828,0.0831,0.0853,0.085,0.0837,0.0882,0.0858,0.0861,0.089,0.0897,0.0902,0.0915,0.0831,0,0,0,0,0,0.0701,0.0715,0.0733,0.0747,0.0755,0.0774,0.0784,0.0798,0.0812,0.0821,0.0832,0.0846,0.0858,0.0871,0.0872,0.0893,0.0902,0.0914,0.0919,0.0924,0.0935,0.0968,0.0978,0.0875,0.0875,0.0875,0,0,0.0702,0.0716,0.0725,0.0746,0.076,0.077,0.0782,0.0802,0.0818,0.0819,0.0846,0.0857,0.0865,0.089,0.0901,0.0895,0.0959,0.0927,0.093,0.0939,0.0972,0.0982,0.0991,0.0877,0.0877,0.0876,0,0,0.07,0.0723,0.0731,0.0742,0.0766,0.0778,0.0787,0.0809,0.083,0.0851,0.0863,0.0892,0.0905,0.0925,0.0935,0.0969,0.0978,0.0977,0.1023,0.1056,0.1065,0.1073,0.1103,0.1113,0.0989,0.0989,0.0989,0,0.0701,0.0712,0.0734,0.0742,0.0757,0.0783,0.0794,0.0813,0.0839,0.087,0.0865,0.0923,0.0923,0.0974,0.0991,0.0982,0.1005,0.0999,0.1064,0.1072,0.1079,0.1108,0.1119,0.0991,0.0991,0.0991,0.099,0,0.0696,0.0712,0.0717,0.0738,0.0759,0.0771,0.0802,0.0834,0.0866,0.0894,0.0953,0.0962,0.1008,0.1013,0.1013,0.1077,0.1078,0.1059,0.1049,0.1092,0.112,0.113,0.0995,0.0994,0.0993,0.0993,0,0,0.0676,0.0707,0.071,0.073,0.076,0.0781,0.0819,0.087,0.0919,0.0952,0.1013,0.1047,0.108,0.1093,0.1106,0.1138,0.1204,0.1133,0.1133,0.1165,0.129,0.1212,0.1216,0.1206,0.1208,0.1209,0.129,0,0.0664,0.0683,0.0703,0.0733,0.075,0.0795,0.0835,0.0893,0.0942,0.1004,0.105,0.1103,0.1103,0.1139,0.1173,0.1191,0.1234,0.1184,0.1241,0.1243,0.117,0.1225,0.1215,0.1298,0.13,0.1302,0.1303,0,0.0646,0.0668,0.0694,0.0755,0.0769,0.0801,0.0895,0.0933,0.1025,0.1072,0.1147,0.1174,0.1245,0.1221,0.1303,0.1279,0.1298,0.1306,0.1308,0.1228,0.1184,0.1243,0.1321,0.132,0.1319,0.1317,0.1316,0,0.0628,0.0664,0.0694,0.0707,0.0775,0.0823,0.0875,0.0968,0.1016,0.1128,0.1177,0.1257,0.1306,0.1344,0.1372,0.1351,0.1444,0.1407,0.136,0.1355,0.1379,0.137,0.1469,0.1469,0.1469,0.1468,0.1468,0,0.06,0.0625,0.0697,0.0712,0.0774,0.0835,0.0914,0.0985,0.1077,0.1143,0.1221,0.1278,0.1341,0.1393,0.1406,0.1423,0.148,0.1384,0.1376,0.1396,0.1388,0.1387,0.1376,0.1471,0.1471,0.147,0.147,0,0.0564,0.0602,0.0644,0.073,0.0763,0.0817,0.0921,0.098,0.1082,0.1166,0.1206,0.1313,0.1392,0.1437,0.15,0.1462,0.148,0.1473,0.1512,0.1501,0.1361,0.1352,0.1423,0.1421,0.1419,0.1418,0.1417,0,0.0544,0.0561,0.065,0.0684,0.0725,0.081,0.087,0.0979,0.1037,0.1179,0.1215,0.1323,0.1387,0.1428,0.1473,0.1504,0.1484,0.1483,0.1404,0.1375,0.136,0.1353,0.1346,0.1414,0.1414,0.1413,0.1413,0,0.0508,0.0545,0.0577,0.0652,0.072,0.0784,0.0878,0.0907,0.1037,0.1122,0.1214,0.126,0.1347,0.1392,0.1434,0.1445,0.147,0.1465,0.1467,0.1393,0.1365,0.135,0.1345,0.1407,0.1408,0.1408,0.1409,0,0.0482,0.0492,0.0548,0.0612,0.0686,0.0751,0.0804,0.0889,0.0956,0.1104,0.1131,0.1254,0.1344,0.1365,0.1399,0.1409,0.1377,0.1318,0.1328,0.1335,0.1264,0.1213,0.1218,0,0,0,0,0,0.0459,0.0466,0.051,0.0576,0.0651,0.0711,0.0806,0.0862,0.0969,0.1014,0.1071,0.1151,0.1217,0.1275,0.1266,0.1341,0.1369,0.1323,0.1303,0.1375,0.1382,0.1304,0,0,0,0,0,0,0.0436,0.0468,0.0487,0.0547,0.0591,0.0678,0.0743,0.082,0.085,0.0956,0.1005,0.1081,0.1164,0.1218,0.1247,0.126,0.1224,0.139,0.1387,0.1371,0.1377,0.1383,0.1305,0,0,0,0,0]},{"header":{"parameterUnit":"m.s-1","parameterCategory":2,"la1":30.2991,"la2":30.254,"lo1":-89.0895,"lo2":-89.0444,"dy":0.0017,"dx":0.0017,"nx":28,"ny":28,"refTime":"2024-04-01T03:00:00:Z","depth":"4","parameterNumber":3,"parameterNumberName":"V-component_of_CURRENTS"},"data":[0,0,0,0,0,0,0,0,0,0,0,0,0,0,0,0,0,0,0,0,0,0,0,0,0,0,0,0,0,0,0,0,0,0,0,0,0,0,0,0,0,0,0,0,0,0,0,0,0,0,0,0,0,0,0,0,0,0,-0.0175,-0.0175,0,-0.0202,-0.0203,-0.0203,-0.0232,-0.0233,-0.0233,-0.0233,-0.0291,-0.0292,-0.0293,0,0,0,0,0,0,0,0,0,0,0,0,0,-0.0167,-0.0167,-0.0175,-0.0175,-0.0175,-0.0202,-0.0203,-0.0203,-0.0232,-0.0233,-0.0233,-0.0234,-0.029,-0.0292,-0.0293,0,0,0,0,0,0,0,0,0,0,0,0,0,-0.018,-0.0166,-0.0175,-0.0193,-0.0194,-0.0202,-0.0203,-0.0203,-0.0232,-0.0233,-0.0233,-0.0234,-0.029,-0.0292,-0.0293,-0.0294,0,0,-0.0299,-0.03,0,0,0,0,0,0,0,0,-0.0179,-0.0181,-0.019,-0.0191,-0.0193,-0.0214,-0.0221,-0.0235,-0.0232,-0.0218,-0.0233,-0.0234,-0.0267,-0.0271,-0.0275,-0.0296,-0.0299,-0.0299,-0.03,-0.0301,-0.0301,0,0,0,0,0,0,0,-0.0178,-0.018,-0.0186,-0.019,-0.0192,-0.0206,-0.0208,-0.0224,-0.024,-0.022,-0.0222,-0.0224,-0.0268,-0.0273,-0.0277,-0.03,-0.0299,-0.03,-0.0302,-0.0302,-0.0335,-0.0335,0,0,0,0,0,0,-0.0172,-0.0179,-0.0185,-0.0187,-0.0187,-0.0205,-0.0208,-0.0207,-0.024,-0.0245,-0.0223,-0.0225,-0.027,-0.0275,-0.0279,-0.0283,-0.0301,-0.0302,-0.0303,-0.0335,-0.0335,-0.0335,0,0,0,0,0,0,-0.0172,-0.0172,-0.0184,-0.0183,-0.0186,-0.0205,-0.0204,-0.0208,-0.0217,-0.0242,-0.0248,-0.0229,-0.0271,-0.0276,-0.0293,-0.0286,-0.0303,-0.0305,-0.0335,-0.0335,-0.0335,-0.0291,0,0,0,0,0,0,-0.0171,-0.0172,-0.0172,-0.0183,-0.0185,-0.0186,-0.0203,-0.0208,-0.0216,-0.0219,-0.0248,-0.0254,-0.0271,-0.029,-0.0294,-0.0288,-0.0306,-0.0336,-0.0335,-0.0335,-0.0292,-0.0289,-0.0286,0,0,0,0,0,-0.0171,-0.0164,-0.0171,-0.0172,-0.0183,-0.0185,-0.0188,-0.0204,-0.0216,-0.0215,-0.0237,-0.0253,-0.0291,-0.0291,-0.0296,-0.0291,-0.0336,-0.0335,-0.0335,-0.0294,-0.029,-0.0286,0,0,0,0,0,0,-0.016,-0.0167,-0.0175,-0.0171,-0.0177,-0.019,-0.0192,-0.0203,-0.0219,-0.0225,-0.0251,-0.0257,-0.0269,-0.0286,-0.0286,-0.03,-0.0316,-0.0317,-0.0283,-0.0279,-0.0276,-0.0266,-0.0308,0,0,0,0,0,-0.0157,-0.0155,-0.0164,-0.0161,-0.0164,-0.0179,-0.0183,-0.0193,-0.0207,-0.0215,-0.0234,-0.0255,-0.027,-0.028,-0.0296,-0.0303,-0.0326,-0.0304,-0.0301,-0.0298,-0.0294,-0.0315,-0.0313,-0.0333,-0.0333,-0.0333,0,0,-0.0152,-0.0156,-0.0156,-0.0159,-0.0167,-0.016,-0.0183,-0.0187,-0.018,-0.0218,-0.022,-0.0245,-0.027,-0.0277,-0.0283,-0.0291,-0.0306,-0.0297,-0.0295,-0.0292,-0.0314,-0.0312,-0.031,-0.0333,-0.0333,-0.0333,0,0,-0.0136,-0.0145,-0.0137,-0.0138,-0.0145,-0.0151,-0.015,-0.0163,-0.0169,-0.0175,-0.0199,-0.0217,-0.0242,-0.0254,-0.0264,-0.0252,-0.0288,-0.0263,-0.0239,-0.0259,-0.0257,-0.0256,-0.0291,-0.0293,-0.0262,-0.0262,-0.0262,0,-0.0131,-0.012,-0.0135,-0.0125,-0.012,-0.0143,-0.0128,-0.0134,-0.015,-0.0155,-0.0171,-0.0208,-0.0227,-0.0234,-0.0231,-0.0243,-0.027,-0.025,-0.0254,-0.0253,-0.0253,-0.0289,-0.0292,-0.0259,-0.026,-0.026,-0.026,0,-0.0107,-0.0098,-0.0093,-0.0085,-0.0083,-0.0075,-0.008,-0.0083,-0.0098,-0.0111,-0.0128,-0.0158,-0.0182,-0.0189,-0.0207,-0.0213,-0.0239,-0.0247,-0.0262,-0.0248,-0.0287,-0.0291,-0.0256,-0.0257,-0.0258,-0.0258,0,0,-0.0095,-0.0078,-0.0077,-0.0065,-0.006,-0.0055,-0.0042,-0.004,-0.0039,-0.0064,-0.0068,-0.0093,-0.0125,-0.0138,-0.0166,-0.0182,-0.0203,-0.0213,-0.0215,-0.0244,-0.0265,-0.0261,-0.0266,-0.0216,-0.0216,-0.0216,-0.0296,0,-0.0072,-0.0042,-0.0039,-0.0009,0.0007,-0.0,0.0013,0.0009,-0.0006,-0.0018,-0.0053,-0.007,-0.01,-0.0117,-0.0138,-0.0189,-0.0211,-0.0182,-0.0277,-0.028,-0.0275,-0.0268,-0.0217,-0.03,-0.03,-0.0301,-0.0302,0,-0.0052,-0.0032,0.0002,0.003,0.0035,0.0047,0.0057,0.0067,0.0047,0.0033,0.0005,-0.0031,-0.0064,-0.0088,-0.0166,-0.0151,-0.0202,-0.0241,-0.0245,-0.0258,-0.0283,-0.0315,-0.0309,-0.0309,-0.0308,-0.0308,-0.0307,0,-0.0041,-0.0005,0.0024,0.0034,0.006,0.007,0.008,0.0074,0.0083,0.006,0.0052,0.0001,-0.003,-0.0092,-0.018,-0.0177,-0.0272,-0.0277,-0.0321,-0.0323,-0.0323,-0.0323,-0.0323,-0.0323,-0.0322,-0.0322,-0.0322,0,-0.0018,0.0002,0.0029,0.0043,0.0076,0.0084,0.0106,0.0108,0.0107,0.0116,0.0073,0.0062,-0.0032,-0.0101,-0.0175,-0.0267,-0.0272,-0.0317,-0.0338,-0.0304,-0.0302,-0.0326,-0.0326,-0.0325,-0.0325,-0.0324,-0.0323,0,-0.0015,0.0004,0.0036,0.0068,0.0081,0.0098,0.0131,0.0145,0.0141,0.0151,0.0146,0.0095,0.001,-0.0092,-0.0204,-0.0259,-0.0345,-0.0375,-0.0346,-0.0365,-0.0386,-0.0382,-0.0427,-0.0428,-0.0428,-0.0429,-0.0429,0,-0.0009,0.0007,0.0049,0.0072,0.0086,0.0117,0.0141,0.0158,0.0176,0.0174,0.0179,0.0107,0.006,-0.0092,-0.0206,-0.0353,-0.0366,-0.0417,-0.0383,-0.0378,-0.0394,-0.039,-0.0386,-0.0429,-0.0429,-0.0429,-0.043,0,-0.0,0.0007,0.0032,0.008,0.0111,0.0157,0.0191,0.0209,0.0229,0.0224,0.0221,0.0148,0.0049,-0.0075,-0.0199,-0.0301,-0.0385,-0.0421,-0.042,-0.0388,-0.0381,-0.0396,-0.0391,-0.0431,-0.0431,-0.043,-0.043,0,-0.0005,0.001,0.004,0.0083,0.0129,0.0183,0.0207,0.0238,0.026,0.0264,0.0258,0.0165,0.0104,-0.0049,-0.0162,-0.0266,-0.0282,-0.0301,-0.0307,-0.0308,-0.0246,-0.0217,-0.0232,0,0,0,0,0,-0.0011,0.0004,0.0045,0.0094,0.0145,0.0181,0.0234,0.0255,0.0271,0.0285,0.028,0.0199,0.0054,-0.0017,-0.0117,-0.0186,-0.0322,-0.0309,-0.0352,-0.0437,-0.0436,-0.0383,0,0,0,0,0,0,-0.0017,0.001,0.0036,0.0097,0.0138,0.0201,0.0244,0.0266,0.0276,0.0279,0.0205,0.0175,0.0025,0.011,-0.012,-0.0155,-0.0193,-0.0382,-0.0384,-0.0438,-0.0437,-0.0436,-0.038,0,0,0,0,0]}]]